User: anonymous   Login
Location: Unspecified
(0.0000°N, 0.0000°E)
Time: 18:24:25
(UTC+00:00)
Language:

Transit 2A - Orbit

View from above orbital plane
View from above orbital plane
View from above satellite
View from above satellite

Ground track
Ground track

The orbit data is extracted from the following two-line orbital elements,

1 00045U 60007A   15213.97466189  .00000176  00000-0  71144-4 0  9999
2 00045 066.6945 034.7233 0255659 173.8815 186.5514 14.33373758867357
Epoch (UTC): 01 August 2015 23:23:30
Eccentricity: 0.0255659
inclination: 66.6945°
perigee height: 597 km
apogee height: 963 km
right ascension of ascending node: 34.7233°
argument of perigee: 173.8815°
revolutions per day: 14.33373758
mean anomaly at epoch: 186.5514°
orbit number at epoch: 86735

The dashed part of the orbit path shows where the satellite is in the earth's shadow,  

DLR